Regional Weather Roundup
Issued by NWS Bismarck, ND

Home | Current Version | Previous Version | Text Only | Print | Product List | Glossary On
Versions: 1 2 3 4 5 6 7 8 9 10 11 12 13 14 15 16 17 18 19 20 21 22 23 24 25 26 27 28 29 30 31 32 33 34 35 36 37 38 39 40 41 42 43 44 45 46 47 48 49 50
000
ASUS43 KBIS 230620
RWRBIS

NWR BROADCAST TEXT
NATIONAL WEATHER SERVICE BISMARCK ND
1200 AM CST SUN NOV 23 2014

NOTE: "FAIR" INDICATES FEW OR NO CLOUDS BELOW 12,000 FEET WITH NO
SIGNIFICANT WEATHER AND/OR OBSTRUCTIONS TO VISIBILITY.


CITY           SKY/WX    TMP DP  RH WIND       PRES   REMARKS
WILLISTON      MOCLDY    40  31  70 W24G30    29.30R
MINOT          PTCLDY    40  30  67 SW13      29.27F
MINOT AFB      PTCLDY    37  32  84 SW15      29.26S
BISMARCK       PTCLDY    32  31  96 S3        29.38R
DICKINSON      CLOUDY    38  31  76 W14       29.36R
GARRISON         N/A     38  34  85 W8        29.31F
HETTINGER ARPT CLOUDY    38  32  79 W10       29.43R
JAMESTOWN      MOCLDY    28  25  88 SW5       29.32S
BEACH          FAIR      36  28  75 W23G29    29.41R
CARRINGTON     FAIR      32  32 100 W10       29.32R
CROSBY         MOCLDY    34  30  86 SW13      29.25R
HARVEY         FAIR      32  32 100 SW10      29.31R
HAZEN          CLOUDY    34  32  93 SW7       29.36R
LINTON         CLOUDY    36  36 100 W3        29.39F
MANDAN         CLOUDY    37  34  87 W9        29.37R
OAKES            N/A     32  32 100 S10       29.37R
RUGBY          FAIR      32  28  86 SW8       29.26F
STANLEY        FAIR      34  30  86 W17G23    29.28R
TIOGA          FAIR      36  32  87 SW17G23   29.31R
$$

CITY           SKY/WX    TMP DP  RH WIND       PRES   REMARKS
GRAND FORKS    CLOUDY    34  32  92 S12       29.36S
GRAND FORKS AF CLOUDY    34  33  99 S10       29.35R
DEVILS LAKE    PTCLDY    30  23  74 S3        29.28F
FARGO          CLOUDY    36  33  89 S14       29.38S FOG
CANDO          FAIR      28  27  93 SW8       29.29R
CAVALIER       FAIR      34  30  86 S10G17    29.31F
GRAFTON        CLOUDY    32  32 100 S12       29.35R FOG
GWINNER        CLEAR     34  34 100 SW12      29.37S
LANGDON        FAIR      32  28  86 S8        29.27S
ROLLA          FAIR      28  28 100 SW6       29.26S
WALHALLA         N/A     32  32 100 SE9       29.29F
$$

CITY           SKY/WX    TMP DP  RH WIND       PRES   REMARKS
ABERDEEN       CLOUDY    34  30  85 SW6       29.40R
MOBRIDGE       CLOUDY    41  35  79 NW8       29.39R
BUFFALO          N/A     40  30  67 W17       29.41R
RAPID CITY     CLOUDY    38  33  82 N18       29.50R
GLASGOW        CLOUDY    38  30  73 W26G39    29.39R
SIDNEY         MOCLDY    39  30  70 W23G31    29.37R
WOLF POINT     CLOUDY    39  32  76 W24G37    29.36R
GLENDIVE       PTCLDY    36  30  80 W24G31    29.43R
MILES CITY     LGT RAIN  36  31  82 W28G40    29.52R
BAKER          MOCLDY    38  25  59 W22G32    29.46R
$$

CITY           SKY/WX    TMP DP  RH WIND       PRES   REMARKS
BILLINGS       PTCLDY    37  14  38 W18       29.63R
GREAT FALLS    PTCLDY    31  19  61 SW14      29.63R
REGINA         FLURRIES  32  32 100 W17       29.14S
ESTEVAN        PTCLDY    32  27  80 SW10      29.21R
$$



USA.gov is the U.S. government's official web portal to all federal, state and local government web resources and services.